Printer-friendly version

IAU Minor Planet Center

Minor Planet Center

MPEC 2008-C58 : 2008 CJ22

The following Minor Planet Electronic Circular may be linked-to from your own Web pages, but must not otherwise be redistributed electronically.


Read MPEC 2008-C57 Read MPEC 2008-C59


M.P.E.C. 2008-C58                                Issued 2008 Feb.  9, 17:45 UT

     The Minor Planet Electronic Circulars contain information on unusual
         minor planets and routine data on comets.  They are published
   on behalf of Commission 20 of the International Astronomical Union by the
          Minor Planet Center, Smithsonian Astrophysical Observatory,
                          Cambridge, MA 02138, U.S.A.

             Prepared using the Tamkin Foundation Computer Network

                              MPC@CFA.HARVARD.EDU
          URL http://www.cfa.harvard.edu/iau/mpc.html  ISSN 1523-6714

                                   2008 CJ22

Observations:
     K08C22J* C2008 02 08.33688 09 45 46.72 +09 38 08.8          20.8 V EC058G96
     K08C22J  C2008 02 08.34344 09 45 48.74 +09 39 54.9          20.7 V EC058G96
     K08C22J  C2008 02 08.34990 09 45 50.76 +09 41 38.9          20.8 V EC058G96
     K08C22J  C2008 02 08.35634 09 45 52.77 +09 43 22.2          20.4 V EC058G96
     K08C22J  C2008 02 08.39433 09 46 04.72 +09 53 34.6                 EC058G96
     K08C22J  C2008 02 08.40169 09 46 06.99 +09 55 28.8                 EC058G96
     K08C22J  C2008 02 08.40917 09 46 09.36 +09 57 31.5          20.9 V EC058G96
     K08C22J  C2008 02 08.41656 09 46 11.66 +09 59 26.7          20.2 V EC058G96
     K08C22J  C2008 02 08.91408 09 49 12.24 +12 11 02.7                 EC058J95
     K08C22J  C2008 02 08.93936 09 49 20.39 +12 17 42.3          21.0 R EC058J95
     K08C22J  C2008 02 09.32782 09 51 33.84 +13 59 34.2          20.5 V EC058G96
     K08C22J  C2008 02 09.33552 09 51 36.25 +14 01 33.6          20.9 V EC058G96
     K08C22J  C2008 02 09.34318 09 51 38.59 +14 03 32.2          20.1 V EC058G96
     K08C22J  C2008 02 09.35096 09 51 40.96 +14 05 33.5          20.9 V EC058G96

Observer details:
G96 Mt. Lemmon Survey.  Observer S. M. Larson.  Measurers E. C. Beshore,
    A. Boattini, G. J. Garradd, A. R. Gibbs, A. D. Grauer, R. E. Hill,
    R. A. Kowalski, S. M. Larson, R. H. McNaught.  1.5-m reflector + CCD.
J95 Great Shefford.  Observer P. Birtwhistle.  0.40-m f/6.0 Schmidt-Cassegrain
    + CCD.

Orbital elements:
2008 CJ22                                                Earth MOID = 0.0793 AU
Epoch 2007 Oct. 27.0 TT = JDT 2454400.5                 MPC
M 315.62482              (2000.0)            P               Q
n   0.56860672     Peri.  332.04500     -0.39521299     -0.89074125
a   1.4429836      Node   140.05471     +0.89445883     -0.42880660
e   0.2789409      Incl.   20.46353     +0.20916521     +0.15068152
P   1.73           H   25.5           G   0.15           U   8
Residuals in seconds of arc
080208 G96  0.3+  0.1-    080208 G96  0.1+  1.3-    080209 G96  0.2+  0.1-
080208 G96  0.1-  0.4+    080208 G96  0.2+  1.5+    080209 G96  0.6+  0.2-
080208 G96  0.0   0.5+    080208 G96  0.4-  1.6-    080209 G96  0.1+  0.3-
080208 G96  0.0   0.2+    080208 J95  0.7+  0.4+    080209 G96  0.4-  0.4+
080208 G96 (0.8+  2.5+)   080208 J95  0.8-  0.3-

Ephemeris:
2008 CJ22                a,e,i = 1.44, 0.28, 20                  q = 1.0405
Date    TT    R. A. (2000) Decl.     Delta      r     Elong.  Phase     V
2008 02 04    09 20.29   -10 01.3    0.0808   1.058   153.3    24.7    21.3
2008 02 05    09 26.16   -05 34.6    0.0797   1.060   157.9    20.5    21.1
2008 02 06    09 32.05   -01 01.2    0.0792   1.062   162.6    16.1    21.0
2008 02 07    09 37.93   +03 34.5    0.0793   1.064   167.2    11.9    20.9
2008 02 08    09 43.80   +08 07.8    0.0800   1.065   171.3     8.0    20.7
2008 02 09    09 49.65   +12 34.6    0.0813   1.067   174.1     5.4    20.6
2008 02 10    09 55.45   +16 50.9    0.0831   1.069   173.9     5.7    20.7
2008 02 11    10 01.19   +20 53.8    0.0855   1.071   171.0     8.2    20.9
2008 02 12    10 06.87   +24 41.3    0.0884   1.073   167.5    11.5    21.1
2008 02 13    10 12.45   +28 12.0    0.0917   1.076   164.0    14.7    21.3
2008 02 14    10 17.95   +31 25.8    0.0955   1.078   160.6    17.7    21.5
2008 02 15    10 23.33   +34 22.7    0.0995   1.080   157.4    20.6    21.7
2008 02 16    10 28.59   +37 03.4    0.104    1.082   154.5    23.1    21.9
2008 02 17    10 33.72   +39 28.9    0.109    1.085   151.8    25.5    22.0
2008 02 18    10 38.71   +41 40.2    0.114    1.087   149.3    27.7    22.2
2008 02 19    10 43.55   +43 38.6    0.119    1.090   147.0    29.6    22.3
2008 02 20    10 48.24   +45 25.1    0.124    1.092   144.9    31.3    22.5
2008 02 21    10 52.77   +47 00.9    0.130    1.095   143.0    32.9    22.6
2008 02 22    10 57.14   +48 27.0    0.135    1.098   141.2    34.3    22.8
2008 02 23    11 01.33   +49 44.4    0.141    1.100   139.6    35.6    22.9
2008 02 24    11 05.36   +50 54.0    0.147    1.103   138.1    36.8    23.0

Timothy B. Spahr             (C) Copyright 2008 MPC           M.P.E.C. 2008-C58

Read MPEC 2008-C57 Read MPEC 2008-C59


Our Web policy. Index to the CBAT/MPC/ICQ pages.


Valid HTML 4.01!